This demonstration page uses our WeatherBlox Daily Observations layout. Learn more.

39.51506, -84.39828

Hourly Observations for August 31, 2020

Temp ( °F °C ) Dew Point ( °F °C ) Humidity (%) Winds ( mph kmh ) Pressure ( in mb ) Visibility ( mi km ) Precip ( " mm )
12:15 am 00:15 Clear 60 15.7 58 14.4 92 92 Calm 29.9 1013 10 16.0934 0 0
12:35 am 00:35 Clear 61 16 58 14.6 91 91 Calm 29.9 1013 10 16.0934 0 0
12:55 am 00:55 Clear 60 15.8 58 14.2 90 90 Calm 29.9 1013 10 16.0934 0 0
1:15 am 01:15 Clear 60 15.4 58 14.3 93 93 Calm 29.91 1013 10 16.0934 0 0
1:35 am 01:35 Clear 58 14.2 57 13.8 97 97 N 3 6 29.9 1012 10 16.0934 0 0
1:55 am 01:55 Clear 58 14.6 57 13.8 95 95 N 5 7 29.9 1012 10 16.0934 0 0
2:15 am 02:15 Clear 58 14.6 56 13.6 94 94 N 3 6 29.89 1012 10 16.0934 0 0
2:35 am 02:35 Clear 59 14.8 57 13.7 93 93 Calm 29.89 1012 10 16.0934 0 0
2:55 am 02:55 Clear 57 13.8 56 13.1 96 96 N 3 6 29.88 1012 10 16.0934 0 0
3:15 am 03:15 Clear 58 14.4 57 13.7 96 96 Calm 29.89 1012 10 16.0934 0 0
3:35 am 03:35 Clear 59 15.2 58 14.3 94 94 Calm 29.89 1012 10 16.0934 0 0
3:55 am 03:55 Clear 60 15.4 57 14.1 92 92 Calm 29.89 1012 10 16.0934 0 0
4:15 am 04:15 Clear 59 15.1 57 13.8 92 92 Calm 29.89 1012 10 16.0934 0 0
4:35 am 04:35 Clear 59 14.8 57 13.7 93 93 N 3 6 29.89 1012 10 16.0934 0 0
4:55 am 04:55 Mostly Cloudy 59 15.1 57 13.9 93 93 Calm 29.89 1012 10 16.0934 0 0
5:15 am 05:15 Mostly Cloudy 60 15.5 58 14.3 93 93 Calm 29.89 1012 10 16.0934 0 0
5:35 am 05:35 Partly Cloudy 60 15.7 58 14.6 93 93 Calm 29.88 1012 10 16.0934 0 0
5:55 am 05:55 Clear 61 16.1 58 14.5 90 90 Calm 29.88 1012 10 16.0934 0 0
6:15 am 06:15 Clear 60 15.4 58 14.5 94 94 Calm 29.89 1012 10 16.0934 0 0
6:35 am 06:35 Clear 59 15 58 14.2 95 95 Calm 29.89 1012 10 16.0934 0 0
6:55 am 06:55 Clear 58 14.6 57 13.9 96 96 Calm 29.89 1012 10 16.0934 0 0
7:15 am 07:15 Mostly Cloudy 58 14.7 57 14.1 96 96 Calm 29.89 1012 10 16.0934 0 0
7:35 am 07:35 Sunny 59 15 58 14.2 95 95 Calm 29.9 1012 10 16.0934 0 0
7:55 am 07:55 Sunny 59 15.1 58 14.5 96 96 Calm 29.9 1012 10 16.0934 0 0
8:15 am 08:15 Sunny 62 16.8 60 15.6 93 93 Calm 29.9 1013 10 16.0934 0 0
8:35 am 08:35 Partly Cloudy 64 17.7 60 15.4 86 86 Calm 29.9 1013 10 16.0934 0 0
8:55 am 08:55 Mostly Cloudy 65 18.5 60 15.6 83 83 E 3 6 29.9 1012 10 16.0934 0 0
9:15 am 09:15 Cloudy 66 18.8 61 16.2 85 85 Calm 29.9 1012 10 16.0934 0 0
9:35 am 09:35 Cloudy 68 19.8 62 16.7 82 82 Calm 29.9 1012 10 16.0934 0 0
9:55 am 09:55 Cloudy 68 19.8 62 16.6 82 82 SE 5 7 29.89 1012 10 16.0934 0 0
10:15 am 10:15 Cloudy 69 20.6 63 17 80 80 SE 7 11 29.88 1012 10 16.0934 0 0
10:35 am 10:35 Cloudy 71 21.4 64 17.7 80 80 S 3 6 29.88 1012 10 16.0934 0 0
10:55 am 10:55 Cloudy 72 22.3 64 18 77 77 ESE 5 7 29.87 1011 10 16.0934 0 0
11:15 am 11:15 Cloudy 74 23.2 65 18.3 74 74 ESE 3 6 29.87 1011 10 16.0934 0 0
11:35 am 11:35 Sunny 74 23.4 65 18.4 74 74 Calm 29.87 1011 10 16.0934 0 0
11:55 am 11:55 Sunny 75 24.1 66 18.7 72 72 ESE 7 11 29.86 1011 10 16.0934 0 0
12:15 pm 12:15 Partly Cloudy 77 24.8 66 18.8 69 69 E 6 9 29.84 1011 10 16.0934 0 0
12:35 pm 12:35 Mostly Cloudy 77 25 66 19 69 69 SE 8 13 29.84 1011 10 16.0934 0 0
12:55 pm 12:55 Partly Cloudy 78 25.8 67 19.2 67 67 SSE 6 9 29.84 1011 10 16.0934 0 0
1:15 pm 13:15 Mostly Cloudy 78 25.5 66 18.9 67 67 Calm 29.84 1011 10 16.0934 0 0
1:35 pm 13:35 Partly Cloudy 79 26.1 67 19.2 66 66 Calm 29.84 1011 10 16.0934 0 0
1:55 pm 13:55 Partly Cloudy 82 27.7 67 19.3 60 60 S 5 7 29.84 1010 10 16.0934 0 0
2:15 pm 14:15 Partly Cloudy 80 26.9 67 19.3 63 63 Calm 29.84 1010 10 16.0934 0 0
2:35 pm 14:35 Mostly Cloudy 80 26.8 67 19.3 64 64 SSE 6 9 29.83 1010 10 16.0934 0 0
2:55 pm 14:55 Mostly Cloudy 83 28.5 66 19.1 57 57 WSW 6 9 29.83 1010 10 16.0934 0 0
3:15 pm 15:15 Cloudy 81 27.4 67 19.3 61 61 S 3 6 29.82 1010 10 16.0934 0 0
3:35 pm 15:35 Cloudy 81 27.3 67 19.2 61 61 SSE 3 6 29.81 1009 10 16.0934 0 0
3:55 pm 15:55 Mostly Cloudy 84 28.7 67 19.6 58 58 Calm 29.79 1009 10 16.0934 0 0
4:15 pm 16:15 Cloudy 83 28.1 68 19.8 61 61 E 6 9 29.79 1009 10 16.0934 0 0
4:35 pm 16:35 Mostly Cloudy 82 27.7 67 19.7 62 62 ESE 7 11 29.78 1008 10 16.0934 0 0
4:55 pm 16:55 Mostly Cloudy 82 27.7 68 19.9 63 63 ESE 6 9 29.78 1008 10 16.0934 0 0
5:15 pm 17:15 Mostly Cloudy 82 27.8 68 19.8 62 62 E 5 7 29.78 1008 10 16.0934 0 0
5:35 pm 17:35 Partly Cloudy 81 27.4 68 19.9 64 64 ESE 5 7 29.79 1009 10 16.0934 0 0
5:55 pm 17:55 Mostly Cloudy 81 27.2 68 20.1 65 65 ESE 7 11 29.79 1009 10 16.0934 0 0
6:15 pm 18:15 Cloudy 81 27.4 68 20.1 64 64 ESE 6 9 29.8 1009 10 16.0934 0 0
6:35 pm 18:35 Cloudy 81 27.4 69 20.3 65 65 S 3 6 29.81 1009 10 16.0934 0 0
6:55 pm 18:55 Partly Cloudy 81 27.3 69 20.3 66 66 SSE 5 7 29.82 1010 10 16.0934 0 0
7:15 pm 19:15 Cloudy 80 26.5 69 20.5 70 70 SSE 7 11 29.83 1010 10 16.0934 0 0
7:35 pm 19:35 Cloudy 79 26 69 20.6 72 72 S 9 15 29.84 1011 10 16.0934 0 0
7:55 pm 19:55 Cloudy 78 25.7 69 20.7 74 74 S 6 9 29.84 1011 10 16.0934 0 0
8:15 pm 20:15 Cloudy 78 25.5 70 20.9 76 76 S 8 13 29.84 1011 10 16.0934 0 0
8:35 pm 20:35 Cloudy 77 25.1 70 21 78 78 SE 5 7 29.84 1011 10 16.0934 0 0
8:55 pm 20:55 Clear 76 24.5 70 21.1 81 81 SE 3 6 29.84 1011 10 16.0934 0 0
9:15 pm 21:15 Partly Cloudy 76 24.4 70 21.1 82 82 SSE 6 9 29.84 1011 10 16.0934 0 0
9:35 pm 21:35 Partly Cloudy 75 24 70 21.2 84 84 SE 3 6 29.86 1011 10 16.0934 0 0
9:55 pm 21:55 Clear 75 23.7 70 21.3 86 86 SSE 6 9 29.86 1011 7 11.26538 0 0
10:15 pm 22:15 Clear 74 23.6 71 21.4 88 88 SE 5 7 29.86 1011 7 11.26538 0 0
10:35 pm 22:35 Clear 74 23.2 71 21.4 90 90 Calm 29.86 1011 7 11.26538 0 0
10:55 pm 22:55 Clear 74 23.1 71 21.5 91 91 Calm 29.87 1011 10 16.0934 0 0
11:15 pm 23:15 Clear 72 22 70 21.3 96 96 Calm 29.87 1012 7 11.26538 0 0
11:35 pm 23:35 Clear 72 22.4 71 21.4 94 94 Calm 29.89 1012 10 16.0934 0 0
11:55 pm 23:55 Clear 70 21.2 69 20.8 98 98 Calm 29.9 1013 7 11.26538 0 0

Powered by AerisWeather